Time,TemperatureF,DewpointF,PressureIn,WindDirection,WindDirectionDegrees,WindSpeedMPH,WindSpeedGustMPH,Humidity,HourlyPrecipIn,Conditions,Clouds,dailyrainin,SoftwareType,DateUTC
2013-04-30 00:00:00,53.8,52.1,29.98,West,264,0.0,2.0,94,0.00,,---,0.00,VWS V14.01,2013-04-30 04:00:00,
2013-04-30 00:01:00,54.1,52.4,29.98,West,264,0.0,2.0,94,0.00,,---,0.00,VWS V14.01,2013-04-30 04:01:00,
2013-04-30 00:06:00,53.8,52.1,29.98,West,264,0.0,2.0,94,0.00,,---,0.00,VWS V14.01,2013-04-30 04:06:00,
2013-04-30 00:11:00,53.6,51.9,29.98,West,264,0.0,0.0,94,0.00,,---,0.00,VWS V14.01,2013-04-30 04:11:00,
2013-04-30 00:16:00,53.4,51.7,29.98,West,264,0.0,1.0,94,0.00,,---,0.00,VWS V14.01,2013-04-30 04:16:00,
2013-04-30 00:21:00,53.4,51.7,29.98,West,264,0.0,1.0,94,0.00,,---,0.00,VWS V14.01,2013-04-30 04:21:00,
2013-04-30 00:26:00,53.4,51.7,29.98,West,264,0.0,1.0,94,0.00,,---,0.00,VWS V14.01,2013-04-30 04:26:00,
2013-04-30 00:30:00,53.1,51.4,29.98,West,264,0.0,1.0,94,0.00,,---,0.00,VWS V14.01,2013-04-30 04:30:00,
2013-04-30 00:31:00,53.3,51.6,29.98,West,264,0.0,1.0,94,0.00,,---,0.00,VWS V14.01,2013-04-30 04:31:00,
2013-04-30 00:36:00,53.1,51.4,29.98,West,264,0.0,1.0,94,0.00,,---,0.00,VWS V14.01,2013-04-30 04:36:00,
2013-04-30 00:41:00,52.9,51.2,29.98,West,264,0.0,1.0,94,0.00,,---,0.00,VWS V14.01,2013-04-30 04:41:00,
2013-04-30 00:46:00,52.9,51.2,29.98,West,264,0.0,1.0,94,0.00,,---,0.00,VWS V14.01,2013-04-30 04:46:00,
2013-04-30 00:51:00,52.9,51.2,29.98,West,264,0.0,1.0,94,0.00,,---,0.00,VWS V14.01,2013-04-30 04:51:00,
2013-04-30 00:56:00,52.9,51.2,29.98,West,264,0.0,1.0,94,0.00,,---,0.00,VWS V14.01,2013-04-30 04:56:00,
2013-04-30 01:00:00,52.5,50.8,29.98,West,264,0.0,1.0,94,0.00,,---,0.00,VWS V14.01,2013-04-30 05:00:00,
2013-04-30 01:01:00,52.7,51.0,29.98,West,264,0.0,1.0,94,0.00,,---,0.00,VWS V14.01,2013-04-30 05:01:00,
2013-04-30 01:06:00,52.5,50.8,29.98,West,264,0.0,1.0,94,0.00,,---,0.00,VWS V14.01,2013-04-30 05:06:00,
2013-04-30 01:11:00,52.4,50.7,29.98,West,264,0.0,0.0,94,0.00,,---,0.00,VWS V14.01,2013-04-30 05:11:00,
2013-04-30 01:16:00,52.4,50.7,29.98,West,264,0.0,0.0,94,0.00,,---,0.00,VWS V14.01,2013-04-30 05:16:00,
2013-04-30 01:21:00,52.3,50.6,29.97,West,264,0.0,0.0,94,0.00,,---,0.00,VWS V14.01,2013-04-30 05:21:00,
2013-04-30 01:26:00,52.3,50.6,29.97,West,264,0.0,0.0,94,0.00,,---,0.00,VWS V14.01,2013-04-30 05:26:00,
2013-04-30 01:30:00,52.1,50.4,29.97,West,264,0.0,0.0,94,0.00,,---,0.00,VWS V14.01,2013-04-30 05:30:00,
2013-04-30 01:31:00,52.2,50.5,29.97,West,264,0.0,0.0,94,0.00,,---,0.00,VWS V14.01,2013-04-30 05:31:00,
2013-04-30 01:36:00,52.2,50.5,29.97,West,264,0.0,0.0,94,0.00,,---,0.00,VWS V14.01,2013-04-30 05:36:00,
2013-04-30 01:41:00,52.2,50.5,29.97,West,264,0.0,0.0,94,0.00,,---,0.00,VWS V14.01,2013-04-30 05:41:00,
2013-04-30 01:46:00,52.2,50.8,29.97,West,264,0.0,0.0,95,0.00,,---,0.00,VWS V14.01,2013-04-30 05:46:00,
2013-04-30 01:51:00,52.1,50.7,29.97,West,264,0.0,0.0,95,0.00,,---,0.00,VWS V14.01,2013-04-30 05:51:00,
2013-04-30 01:56:00,52.0,50.6,29.97,West,264,0.0,0.0,95,0.00,,---,0.00,VWS V14.01,2013-04-30 05:56:00,
2013-04-30 02:00:00,51.9,50.5,29.97,West,264,0.0,0.0,95,0.00,,---,0.00,VWS V14.01,2013-04-30 06:00:00,
2013-04-30 02:01:00,52.0,50.6,29.97,West,264,0.0,0.0,95,0.00,,---,0.00,VWS V14.01,2013-04-30 06:01:00,
2013-04-30 02:06:00,51.9,50.5,29.97,West,264,0.0,0.0,95,0.00,,---,0.00,VWS V14.01,2013-04-30 06:06:00,
2013-04-30 02:11:00,51.7,50.0,29.97,West,264,0.0,0.0,94,0.00,,---,0.00,VWS V14.01,2013-04-30 06:11:00,
2013-04-30 02:16:00,51.7,50.3,29.96,West,264,0.0,0.0,95,0.00,,---,0.00,VWS V14.01,2013-04-30 06:16:00,
2013-04-30 02:21:00,51.6,50.2,29.96,West,264,0.0,0.0,95,0.00,,---,0.00,VWS V14.01,2013-04-30 06:21:00,
2013-04-30 02:26:00,51.5,50.1,29.96,West,264,0.0,0.0,95,0.00,,---,0.00,VWS V14.01,2013-04-30 06:26:00,
2013-04-30 02:30:00,51.4,50.0,29.96,West,264,0.0,0.0,95,0.00,,---,0.00,VWS V14.01,2013-04-30 06:30:00,
2013-04-30 02:31:00,51.5,50.1,29.96,West,264,0.0,0.0,95,0.00,,---,0.00,VWS V14.01,2013-04-30 06:31:00,
2013-04-30 02:36:00,51.4,50.0,29.96,West,264,0.0,0.0,95,0.00,,---,0.00,VWS V14.01,2013-04-30 06:36:00,
2013-04-30 02:41:00,51.3,49.9,29.96,West,264,0.0,0.0,95,0.00,,---,0.00,VWS V14.01,2013-04-30 06:41:00,
2013-04-30 02:46:00,51.2,49.8,29.96,West,264,0.0,0.0,95,0.00,,---,0.00,VWS V14.01,2013-04-30 06:46:00,
2013-04-30 02:51:00,51.2,49.8,29.96,West,264,0.0,0.0,95,0.00,,---,0.00,VWS V14.01,2013-04-30 06:51:00,
2013-04-30 02:56:00,51.1,49.7,29.96,West,264,0.0,0.0,95,0.00,,---,0.00,VWS V14.01,2013-04-30 06:56:00,
2013-04-30 03:00:00,51.0,49.6,29.97,West,264,0.0,0.0,95,0.00,,---,0.00,VWS V14.01,2013-04-30 07:00:00,
2013-04-30 03:01:00,51.1,49.7,29.96,West,264,0.0,0.0,95,0.00,,---,0.00,VWS V14.01,2013-04-30 07:01:00,
2013-04-30 03:06:00,51.0,49.6,29.97,West,264,0.0,0.0,95,0.00,,---,0.00,VWS V14.01,2013-04-30 07:06:00,
2013-04-30 03:11:00,51.0,49.6,29.97,West,264,0.0,0.0,95,0.00,,---,0.00,VWS V14.01,2013-04-30 07:11:00,
2013-04-30 03:16:00,51.0,49.6,29.97,West,264,0.0,0.0,95,0.00,,---,0.00,VWS V14.01,2013-04-30 07:16:00,
2013-04-30 03:21:00,51.2,49.8,29.97,West,264,0.0,0.0,95,0.00,,---,0.00,VWS V14.01,2013-04-30 07:21:00,
2013-04-30 03:26:00,51.4,50.0,29.97,West,264,0.0,1.0,95,0.00,,---,0.00,VWS V14.01,2013-04-30 07:26:00,
2013-04-30 03:30:00,51.2,49.8,29.97,West,264,0.0,1.0,95,0.00,,---,0.00,VWS V14.01,2013-04-30 07:30:00,
2013-04-30 03:31:00,51.4,50.0,29.97,West,264,0.0,1.0,95,0.00,,---,0.00,VWS V14.01,2013-04-30 07:31:00,
2013-04-30 03:36:00,51.2,49.8,29.97,West,264,0.0,1.0,95,0.00,,---,0.00,VWS V14.01,2013-04-30 07:36:00,
2013-04-30 03:41:00,51.1,49.7,29.97,West,264,0.0,0.0,95,0.00,,---,0.00,VWS V14.01,2013-04-30 07:41:00,
2013-04-30 03:46:00,51.0,49.6,29.97,West,264,0.0,1.0,95,0.00,,---,0.00,VWS V14.01,2013-04-30 07:46:00,
2013-04-30 03:51:00,51.0,49.6,29.98,West,264,0.0,1.0,95,0.00,,---,0.00,VWS V14.01,2013-04-30 07:51:00,
2013-04-30 03:56:00,51.0,49.6,29.98,West,264,0.0,1.0,95,0.00,,---,0.00,VWS V14.01,2013-04-30 07:56:00,
2013-04-30 04:00:00,51.1,49.7,29.98,West,264,0.0,1.0,95,0.00,,---,0.00,VWS V14.01,2013-04-30 08:00:00,
2013-04-30 04:01:00,51.1,49.7,29.98,West,264,0.0,1.0,95,0.00,,---,0.00,VWS V14.01,2013-04-30 08:01:00,
2013-04-30 04:06:00,51.1,49.7,29.98,West,264,0.0,1.0,95,0.00,,---,0.00,VWS V14.01,2013-04-30 08:06:00,
2013-04-30 04:11:00,51.0,49.6,29.98,West,264,0.0,1.0,95,0.00,,---,0.00,VWS V14.01,2013-04-30 08:11:00,
2013-04-30 04:16:00,51.1,49.7,29.98,West,264,0.0,1.0,95,0.00,,---,0.00,VWS V14.01,2013-04-30 08:16:00,
2013-04-30 04:21:00,51.2,49.8,29.98,West,264,0.0,1.0,95,0.00,,---,0.00,VWS V14.01,2013-04-30 08:21:00,
2013-04-30 04:26:00,51.3,49.9,29.98,West,264,0.0,1.0,95,0.00,,---,0.00,VWS V14.01,2013-04-30 08:26:00,
2013-04-30 04:30:00,51.8,50.4,29.99,West,264,0.0,1.0,95,0.00,,---,0.00,VWS V14.01,2013-04-30 08:30:00,
2013-04-30 04:31:00,51.5,50.1,29.98,West,264,0.0,1.0,95,0.00,,---,0.00,VWS V14.01,2013-04-30 08:31:00,
2013-04-30 04:36:00,51.8,50.4,29.99,West,264,0.0,1.0,95,0.00,,---,0.00,VWS V14.01,2013-04-30 08:36:00,
2013-04-30 04:41:00,52.1,51.0,29.99,West,264,0.0,2.0,96,0.00,,---,0.00,VWS V14.01,2013-04-30 08:41:00,
2013-04-30 04:46:00,52.3,51.2,29.99,West,264,0.0,2.0,96,0.00,,---,0.00,VWS V14.01,2013-04-30 08:46:00,
2013-04-30 04:51:00,52.5,51.4,29.99,West,264,0.0,2.0,96,0.01,,---,0.01,VWS V14.01,2013-04-30 08:51:00,
2013-04-30 04:56:00,52.7,51.6,29.99,West,264,0.0,2.0,96,0.01,,---,0.01,VWS V14.01,2013-04-30 08:56:00,
2013-04-30 05:00:00,52.9,51.8,30.00,West,264,2.0,3.0,96,0.01,,---,0.01,VWS V14.01,2013-04-30 09:00:00,
2013-04-30 05:01:00,52.8,51.7,29.99,West,264,1.0,3.0,96,0.01,,---,0.01,VWS V14.01,2013-04-30 09:01:00,
2013-04-30 05:06:00,52.9,51.8,30.00,West,264,2.0,3.0,96,0.01,,---,0.01,VWS V14.01,2013-04-30 09:06:00,
2013-04-30 05:11:00,53.0,51.9,30.00,West,264,2.0,3.0,96,0.01,,---,0.01,VWS V14.01,2013-04-30 09:11:00,
2013-04-30 05:16:00,52.9,51.8,30.00,West,264,0.0,3.0,96,0.01,,---,0.01,VWS V14.01,2013-04-30 09:16:00,
2013-04-30 05:21:00,53.0,51.9,30.00,West,264,1.0,3.0,96,0.01,,---,0.01,VWS V14.01,2013-04-30 09:21:00,
2013-04-30 05:26:00,53.1,52.0,29.99,West,264,2.0,3.0,96,0.01,,---,0.01,VWS V14.01,2013-04-30 09:26:00,
2013-04-30 05:30:00,53.3,52.2,29.99,West,264,4.0,5.0,96,0.01,,---,0.01,VWS V14.01,2013-04-30 09:30:00,
2013-04-30 05:31:00,53.1,52.0,29.99,West,264,2.0,3.0,96,0.01,,---,0.01,VWS V14.01,2013-04-30 09:31:00,
2013-04-30 05:36:00,53.3,52.2,29.99,West,264,4.0,5.0,96,0.01,,---,0.01,VWS V14.01,2013-04-30 09:36:00,
2013-04-30 05:41:00,53.3,51.9,29.99,West,264,2.0,4.0,95,0.01,,---,0.01,VWS V14.01,2013-04-30 09:41:00,
2013-04-30 05:46:00,53.3,51.9,29.99,West,264,2.0,4.0,95,0.01,,---,0.01,VWS V14.01,2013-04-30 09:46:00,
2013-04-30 05:51:00,53.3,51.9,29.99,West,264,3.0,4.0,95,0.01,,---,0.01,VWS V14.01,2013-04-30 09:51:00,
2013-04-30 05:56:00,53.3,51.9,29.99,West,264,1.0,4.0,95,0.01,,---,0.01,VWS V14.01,2013-04-30 09:56:00,
2013-04-30 06:00:00,53.4,52.0,30.00,West,264,0.0,4.0,95,0.01,,---,0.01,VWS V14.01,2013-04-30 10:00:00,
2013-04-30 06:01:00,53.4,52.0,29.99,West,264,0.0,4.0,95,0.01,,---,0.01,VWS V14.01,2013-04-30 10:01:00,
2013-04-30 06:06:00,53.4,52.0,30.00,West,264,0.0,4.0,95,0.01,,---,0.01,VWS V14.01,2013-04-30 10:06:00,
2013-04-30 06:11:00,53.5,52.1,30.00,West,264,0.0,1.0,95,0.00,,---,0.01,VWS V14.01,2013-04-30 10:11:00,
2013-04-30 06:16:00,53.4,52.0,30.00,West,264,0.0,1.0,95,0.00,,---,0.01,VWS V14.01,2013-04-30 10:16:00,
2013-04-30 06:21:00,53.5,52.1,30.00,West,264,0.0,2.0,95,0.00,,---,0.01,VWS V14.01,2013-04-30 10:21:00,
2013-04-30 06:26:00,53.6,52.2,30.01,West,264,0.0,3.0,95,0.00,,---,0.01,VWS V14.01,2013-04-30 10:26:00,
2013-04-30 06:30:00,54.0,52.6,30.01,West,264,0.0,3.0,95,0.00,,---,0.01,VWS V14.01,2013-04-30 10:30:00,
2013-04-30 06:31:00,53.8,52.4,30.01,West,264,2.0,3.0,95,0.00,,---,0.01,VWS V14.01,2013-04-30 10:31:00,
2013-04-30 06:36:00,54.0,52.6,30.01,West,264,0.0,3.0,95,0.00,,---,0.01,VWS V14.01,2013-04-30 10:36:00,
2013-04-30 06:41:00,54.0,52.6,30.01,West,275,4.0,5.0,95,0.00,,---,0.01,VWS V14.01,2013-04-30 10:41:00,
2013-04-30 06:46:00,54.1,52.7,30.01,West,277,5.0,5.0,95,0.00,,---,0.01,VWS V14.01,2013-04-30 10:46:00,
2013-04-30 06:51:00,54.1,52.7,30.01,West,277,4.0,5.0,95,0.00,,---,0.01,VWS V14.01,2013-04-30 10:51:00,
2013-04-30 06:56:00,54.2,52.8,30.02,WNW,286,5.0,6.0,95,0.00,,---,0.01,VWS V14.01,2013-04-30 10:56:00,
2013-04-30 07:00:00,54.3,52.9,30.02,WNW,288,0.0,6.0,95,0.00,,---,0.01,VWS V14.01,2013-04-30 11:00:00,
2013-04-30 07:01:00,54.3,52.9,30.02,WNW,288,1.0,6.0,95,0.00,,---,0.01,VWS V14.01,2013-04-30 11:01:00,
2013-04-30 07:06:00,54.3,52.9,30.02,WNW,288,0.0,6.0,95,0.00,,---,0.01,VWS V14.01,2013-04-30 11:06:00,
2013-04-30 07:11:00,54.4,53.0,30.02,WNW,288,0.0,2.0,95,0.00,,---,0.01,VWS V14.01,2013-04-30 11:11:00,
2013-04-30 07:16:00,54.5,53.1,30.03,WNW,288,0.0,3.0,95,0.00,,---,0.01,VWS V14.01,2013-04-30 11:16:00,
2013-04-30 07:21:00,54.6,53.2,30.03,WNW,288,1.0,3.0,95,0.00,,---,0.01,VWS V14.01,2013-04-30 11:21:00,
2013-04-30 07:26:00,54.7,53.3,30.03,WNW,288,1.0,3.0,95,0.00,,---,0.01,VWS V14.01,2013-04-30 11:26:00,
2013-04-30 07:30:00,54.9,53.5,30.04,WNW,288,0.0,3.0,95,0.00,,---,0.01,VWS V14.01,2013-04-30 11:30:00,
2013-04-30 07:31:00,54.8,53.4,30.03,WNW,288,0.0,3.0,95,0.00,,---,0.01,VWS V14.01,2013-04-30 11:31:00,
2013-04-30 07:36:00,54.9,53.5,30.04,WNW,288,0.0,3.0,95,0.00,,---,0.01,VWS V14.01,2013-04-30 11:36:00,
2013-04-30 07:41:00,55.0,53.6,30.04,WNW,288,0.0,0.0,95,0.00,,---,0.01,VWS V14.01,2013-04-30 11:41:00,
2013-04-30 07:46:00,55.2,53.8,30.04,WNW,288,0.0,0.0,95,0.00,,---,0.01,VWS V14.01,2013-04-30 11:46:00,
2013-04-30 07:51:00,55.3,54.2,30.04,WNW,288,2.0,2.0,96,0.00,,---,0.01,VWS V14.01,2013-04-30 11:51:00,
2013-04-30 07:56:00,55.4,54.3,30.04,WNW,288,4.0,5.0,96,0.00,,---,0.01,VWS V14.01,2013-04-30 11:56:00,
2013-04-30 08:00:00,55.5,54.1,30.05,WNW,290,1.0,5.0,95,0.00,,---,0.01,VWS V14.01,2013-04-30 12:00:00,
2013-04-30 08:01:00,55.5,54.4,30.05,WNW,290,3.0,5.0,96,0.00,,---,0.01,VWS V14.01,2013-04-30 12:01:00,
2013-04-30 08:06:00,55.5,54.1,30.05,WNW,290,1.0,5.0,95,0.00,,---,0.01,VWS V14.01,2013-04-30 12:06:00,
2013-04-30 08:11:00,55.7,54.3,30.05,WNW,290,1.0,3.0,95,0.00,,---,0.01,VWS V14.01,2013-04-30 12:11:00,
2013-04-30 08:16:00,56.0,54.6,30.05,WNW,290,1.0,3.0,95,0.00,,---,0.01,VWS V14.01,2013-04-30 12:16:00,
2013-04-30 08:21:00,56.4,55.0,30.05,WNW,290,1.0,4.0,95,0.00,,---,0.01,VWS V14.01,2013-04-30 12:21:00,
2013-04-30 08:26:00,56.7,55.3,30.05,WNW,290,3.0,4.0,95,0.00,,---,0.01,VWS V14.01,2013-04-30 12:26:00,
2013-04-30 08:30:00,57.3,55.9,30.05,WNW,290,3.0,5.0,95,0.00,,---,0.01,VWS V14.01,2013-04-30 12:30:00,
2013-04-30 08:31:00,57.0,55.6,30.05,WNW,290,1.0,4.0,95,0.00,,---,0.01,VWS V14.01,2013-04-30 12:31:00,
2013-04-30 08:36:00,57.2,55.8,30.05,WNW,290,1.0,5.0,95,0.00,,---,0.01,VWS V14.01,2013-04-30 12:36:00,
2013-04-30 08:41:00,57.5,56.1,30.05,WNW,290,0.0,3.0,95,0.00,,---,0.01,VWS V14.01,2013-04-30 12:41:00,
2013-04-30 08:46:00,57.7,56.0,30.05,WNW,290,3.0,4.0,94,0.00,,---,0.01,VWS V14.01,2013-04-30 12:46:00,
2013-04-30 08:51:00,58.0,56.3,30.05,WNW,290,4.0,5.0,94,0.00,,---,0.01,VWS V14.01,2013-04-30 12:51:00,
2013-04-30 08:56:00,58.3,56.6,30.06,WNW,290,3.0,5.0,94,0.00,,---,0.01,VWS V14.01,2013-04-30 12:56:00,
2013-04-30 09:00:00,58.5,56.8,30.05,WNW,290,2.0,5.0,94,0.00,,---,0.01,VWS V14.01,2013-04-30 13:00:00,
2013-04-30 09:05:00,58.9,56.9,30.05,WNW,290,2.0,5.0,93,0.00,,---,0.01,VWS V14.01,2013-04-30 13:05:00,
2013-04-30 09:10:00,59.2,57.2,30.05,WNW,291,3.0,6.0,93,0.00,,---,0.01,VWS V14.01,2013-04-30 13:10:00,
2013-04-30 09:15:00,59.4,57.1,30.05,WNW,294,4.0,7.0,92,0.00,,---,0.01,VWS V14.01,2013-04-30 13:15:00,
2013-04-30 09:20:00,59.7,57.7,30.06,WNW,294,3.0,7.0,93,0.00,,---,0.01,VWS V14.01,2013-04-30 13:20:00,
2013-04-30 09:26:00,60.1,58.1,30.06,WNW,295,3.0,7.0,93,0.00,,---,0.01,VWS V14.01,2013-04-30 13:26:00,
2013-04-30 09:30:00,60.7,58.7,30.06,WNW,298,4.0,7.0,93,0.00,,---,0.01,VWS V14.01,2013-04-30 13:30:00,
2013-04-30 09:31:00,60.4,58.4,30.06,WNW,295,2.0,7.0,93,0.00,,---,0.01,VWS V14.01,2013-04-30 13:31:00,
2013-04-30 09:36:00,60.7,58.7,30.06,WNW,298,5.0,7.0,93,0.00,,---,0.01,VWS V14.01,2013-04-30 13:36:00,
2013-04-30 09:41:00,60.8,58.8,30.06,WNW,298,3.0,6.0,93,0.00,,---,0.01,VWS V14.01,2013-04-30 13:41:00,
2013-04-30 09:46:00,60.9,58.9,30.06,WNW,298,0.0,6.0,93,0.00,,---,0.01,VWS V14.01,2013-04-30 13:46:00,
2013-04-30 09:51:00,60.9,58.9,30.06,WNW,298,0.0,6.0,93,0.00,,---,0.01,VWS V14.01,2013-04-30 13:51:00,
2013-04-30 09:55:00,61.5,59.5,30.06,WNW,298,2.0,6.0,93,0.00,,---,0.01,VWS V14.01,2013-04-30 13:55:00,
2013-04-30 10:00:00,61.8,59.8,30.06,WNW,298,3.0,6.0,93,0.00,,---,0.01,VWS V14.01,2013-04-30 14:00:00,
2013-04-30 10:05:00,62.0,60.0,30.06,WNW,298,3.0,6.0,93,0.00,,---,0.01,VWS V14.01,2013-04-30 14:05:00,
2013-04-30 10:10:00,62.3,60.2,30.06,WNW,299,6.0,6.0,93,0.00,,---,0.01,VWS V14.01,2013-04-30 14:10:00,
2013-04-30 10:15:00,62.4,60.3,30.06,NW,315,3.0,10.0,93,0.00,,---,0.01,VWS V14.01,2013-04-30 14:15:00,
2013-04-30 10:20:00,62.5,60.2,30.06,NW,316,4.0,10.0,92,0.00,,---,0.01,VWS V14.01,2013-04-30 14:20:00,
2013-04-30 10:25:00,62.9,60.8,30.07,NW,315,3.0,10.0,93,0.00,,---,0.01,VWS V14.01,2013-04-30 14:25:00,
2013-04-30 10:30:00,63.3,60.9,30.07,NW,316,2.0,10.0,92,0.00,,---,0.01,VWS V14.01,2013-04-30 14:30:00,
2013-04-30 10:35:00,63.6,61.2,30.07,NW,316,2.0,10.0,92,0.00,,---,0.01,VWS V14.01,2013-04-30 14:35:00,
2013-04-30 10:40:00,63.8,61.1,30.07,NW,316,0.0,5.0,91,0.00,,---,0.01,VWS V14.01,2013-04-30 14:40:00,
2013-04-30 10:45:00,64.0,61.6,30.06,NW,322,5.0,6.0,92,0.00,,---,0.01,VWS V14.01,2013-04-30 14:45:00,
2013-04-30 10:50:00,64.3,61.9,30.07,NW,322,5.0,6.0,92,0.00,,---,0.01,VWS V14.01,2013-04-30 14:50:00,
2013-04-30 10:55:00,64.8,62.1,30.07,NW,322,0.0,6.0,91,0.00,,---,0.01,VWS V14.01,2013-04-30 14:55:00,
2013-04-30 11:00:00,65.2,62.2,30.07,NW,322,1.0,6.0,90,0.00,,---,0.01,VWS V14.01,2013-04-30 15:00:00,
2013-04-30 11:05:00,65.6,62.6,30.07,NW,322,2.0,6.0,90,0.00,,---,0.01,VWS V14.01,2013-04-30 15:05:00,
2013-04-30 11:10:00,66.2,62.9,30.07,NW,322,0.0,4.0,89,0.00,,---,0.01,VWS V14.01,2013-04-30 15:10:00,
2013-04-30 11:15:00,66.4,62.7,30.07,NNW,343,1.0,7.0,88,0.00,,---,0.01,VWS V14.01,2013-04-30 15:15:00,
2013-04-30 11:20:00,66.8,63.1,30.07,NNW,344,1.0,7.0,88,0.00,,---,0.01,VWS V14.01,2013-04-30 15:20:00,
2013-04-30 11:25:00,67.3,63.0,30.07,North,355,4.0,7.0,86,0.00,,---,0.01,VWS V14.01,2013-04-30 15:25:00,
2013-04-30 11:30:00,66.8,62.5,30.07,NE,37,2.0,12.0,86,0.00,,---,0.01,VWS V14.01,2013-04-30 15:30:00,
2013-04-30 11:35:00,66.8,62.8,30.07,NE,37,3.0,12.0,87,0.00,,---,0.01,VWS V14.01,2013-04-30 15:35:00,
2013-04-30 11:40:00,66.9,62.6,30.07,NE,39,3.0,9.0,86,0.00,,---,0.01,VWS V14.01,2013-04-30 15:40:00,
2013-04-30 11:45:00,66.9,62.9,30.07,NE,39,2.0,9.0,87,0.00,,---,0.01,VWS V14.01,2013-04-30 15:45:00,
2013-04-30 11:50:00,66.9,62.6,30.07,NE,42,4.0,9.0,86,0.00,,---,0.01,VWS V14.01,2013-04-30 15:50:00,
2013-04-30 11:55:00,66.8,62.8,30.07,NE,42,2.0,9.0,87,0.00,,---,0.01,VWS V14.01,2013-04-30 15:55:00,
2013-04-30 12:00:00,66.9,62.9,30.07,NE,42,1.0,9.0,87,0.00,,---,0.01,VWS V14.01,2013-04-30 16:00:00,
2013-04-30 12:05:00,67.3,63.3,30.07,NE,47,7.0,9.0,87,0.00,,---,0.01,VWS V14.01,2013-04-30 16:05:00,
2013-04-30 12:10:00,67.6,62.6,30.07,NE,48,4.0,7.0,84,0.00,,---,0.01,VWS V14.01,2013-04-30 16:10:00,
2013-04-30 12:15:00,68.2,63.2,30.06,NE,49,2.0,7.0,84,0.00,,---,0.01,VWS V14.01,2013-04-30 16:15:00,
2013-04-30 12:20:00,68.9,63.2,30.06,NE,49,3.0,7.0,82,0.00,,---,0.01,VWS V14.01,2013-04-30 16:20:00,
2013-04-30 12:25:00,69.0,62.9,30.06,NE,49,4.0,7.0,81,0.00,,---,0.01,VWS V14.01,2013-04-30 16:25:00,
2013-04-30 12:30:00,69.9,63.8,30.06,NE,46,3.0,8.0,81,0.00,,---,0.01,VWS V14.01,2013-04-30 16:30:00,
2013-04-30 12:35:00,70.1,62.9,30.05,NE,46,3.0,8.0,78,0.00,,---,0.01,VWS V14.01,2013-04-30 16:35:00,
2013-04-30 12:40:00,70.1,62.9,30.05,NE,49,2.0,10.0,78,0.00,,---,0.01,VWS V14.01,2013-04-30 16:40:00,
2013-04-30 12:45:00,70.1,62.9,30.05,NE,52,0.0,10.0,78,0.00,,---,0.01,VWS V14.01,2013-04-30 16:45:00,
2013-04-30 12:50:00,70.2,63.0,30.05,ENE,57,3.0,10.0,78,0.00,,---,0.01,VWS V14.01,2013-04-30 16:50:00,
2013-04-30 12:55:00,69.7,62.9,30.05,ENE,57,1.0,10.0,79,0.00,,---,0.01,VWS V14.01,2013-04-30 16:55:00,
2013-04-30 13:00:00,70.2,63.0,30.05,ENE,57,2.0,10.0,78,0.00,,---,0.01,VWS V14.01,2013-04-30 17:00:00,
2013-04-30 13:05:00,70.3,62.4,30.04,NE,52,3.0,10.0,76,0.00,,---,0.01,VWS V14.01,2013-04-30 17:05:00,
2013-04-30 13:10:00,70.1,62.6,30.04,NE,38,10.0,12.0,77,0.00,,---,0.01,VWS V14.01,2013-04-30 17:10:00,
2013-04-30 13:15:00,70.0,61.7,30.04,NE,48,1.0,12.0,75,0.00,,---,0.01,VWS V14.01,2013-04-30 17:15:00,
2013-04-30 13:20:00,70.1,62.6,30.04,NE,42,5.0,12.0,77,0.00,,---,0.01,VWS V14.01,2013-04-30 17:20:00,
2013-04-30 13:25:00,70.7,62.8,30.03,NE,44,0.0,12.0,76,0.00,,---,0.01,VWS V14.01,2013-04-30 17:25:00,
2013-04-30 13:30:00,70.9,61.0,30.03,NE,51,3.0,12.0,71,0.00,,---,0.01,VWS V14.01,2013-04-30 17:30:00,
2013-04-30 13:35:00,71.2,61.7,30.03,ENE,77,3.0,12.0,72,0.00,,---,0.01,VWS V14.01,2013-04-30 17:35:00,
2013-04-30 13:40:00,71.5,61.6,30.03,East,84,2.0,6.0,71,0.00,,---,0.01,VWS V14.01,2013-04-30 17:40:00,
2013-04-30 13:45:00,71.5,61.6,30.03,ENE,64,0.0,8.0,71,0.00,,---,0.01,VWS V14.01,2013-04-30 17:45:00,
2013-04-30 13:50:00,71.7,61.8,30.02,ENE,60,1.0,8.0,71,0.00,,---,0.01,VWS V14.01,2013-04-30 17:50:00,
2013-04-30 13:55:00,71.9,59.9,30.02,ENE,67,4.0,9.0,66,0.00,,---,0.01,VWS V14.01,2013-04-30 17:55:00,
2013-04-30 14:00:00,72.1,60.1,30.02,East,83,2.0,9.0,66,0.00,,---,0.01,VWS V14.01,2013-04-30 18:00:00,
2013-04-30 14:05:00,72.4,59.5,30.03,East,86,2.0,9.0,64,0.00,,---,0.01,VWS V14.01,2013-04-30 18:05:00,
2013-04-30 14:10:00,72.5,59.2,30.03,ESE,106,3.0,6.0,63,0.00,,---,0.01,VWS V14.01,2013-04-30 18:10:00,
2013-04-30 14:15:00,72.8,60.4,30.03,ESE,106,0.0,6.0,65,0.00,,---,0.01,VWS V14.01,2013-04-30 18:15:00,
2013-04-30 14:20:00,73.2,60.7,30.03,SE,135,0.0,7.0,65,0.00,,---,0.01,VWS V14.01,2013-04-30 18:20:00,
2013-04-30 14:25:00,73.6,60.2,30.03,SE,134,0.0,7.0,63,0.00,,---,0.01,VWS V14.01,2013-04-30 18:25:00,
2013-04-30 14:30:00,73.8,60.9,30.03,ENE,78,1.0,7.0,64,0.00,,---,0.01,VWS V14.01,2013-04-30 18:30:00,
2013-04-30 14:35:00,74.1,61.2,30.03,ENE,78,2.0,7.0,64,0.00,,---,0.01,VWS V14.01,2013-04-30 18:35:00,
2013-04-30 14:40:00,73.6,60.7,30.03,ENE,78,0.0,4.0,64,0.00,,---,0.01,VWS V14.01,2013-04-30 18:40:00,
2013-04-30 14:45:00,74.3,61.8,30.03,East,80,4.0,7.0,65,0.00,,---,0.01,VWS V14.01,2013-04-30 18:45:00,
2013-04-30 14:50:00,74.8,60.0,30.03,East,81,1.0,7.0,60,0.00,,---,0.01,VWS V14.01,2013-04-30 18:50:00,
2013-04-30 14:55:00,75.4,61.9,30.03,East,82,2.0,7.0,63,0.00,,---,0.01,VWS V14.01,2013-04-30 18:55:00,
2013-04-30 15:00:00,75.0,59.7,30.03,ENE,72,1.0,8.0,59,0.00,,---,0.01,VWS V14.01,2013-04-30 19:00:00,
2013-04-30 15:05:00,75.0,60.7,30.03,SE,132,5.0,8.0,61,0.00,,---,0.01,VWS V14.01,2013-04-30 19:05:00,
2013-04-30 15:10:00,75.8,60.0,30.03,SSE,148,3.0,7.0,58,0.00,,---,0.01,VWS V14.01,2013-04-30 19:10:00,
2013-04-30 15:15:00,75.0,58.3,30.03,East,98,4.0,7.0,56,0.00,,---,0.01,VWS V14.01,2013-04-30 19:15:00,
2013-04-30 15:20:00,75.4,58.6,30.03,SE,145,3.0,7.0,56,0.00,,---,0.01,VWS V14.01,2013-04-30 19:20:00,
2013-04-30 15:30:00,75.7,60.8,30.03,South,180,3.0,10.0,60,0.00,,---,0.01,VWS V14.01,2013-04-30 19:30:00,
2013-04-30 16:00:00,76.5,58.1,30.03,SSW,202,4.0,9.0,53,0.00,,---,0.01,VWS V14.01,2013-04-30 20:00:00,
2013-04-30 16:30:00,76.7,58.8,30.01,SSW,202,3.0,7.0,54,0.00,,---,0.01,VWS V14.01,2013-04-30 20:30:00,
2013-04-30 17:00:00,76.8,59.4,30.01,ENE,68,2.0,9.0,55,0.00,,---,0.01,VWS V14.01,2013-04-30 21:00:00,
2013-04-30 17:30:00,77.0,57.5,30.01,ENE,68,2.0,8.0,51,0.00,,---,0.01,VWS V14.01,2013-04-30 21:30:00,
2013-04-30 18:00:00,76.5,60.2,30.01,NE,45,4.0,11.0,57,0.00,,---,0.01,VWS V14.01,2013-04-30 22:00:00,
2013-04-30 18:30:00,76.1,59.8,30.02,NE,45,4.0,13.0,57,0.00,,---,0.01,VWS V14.01,2013-04-30 22:30:00,
2013-04-30 19:00:00,75.6,58.8,30.02,ENE,68,3.0,9.0,56,0.00,,---,0.01,VWS V14.01,2013-04-30 23:00:00,
2013-04-30 19:52:00,75.6,58.8,30.02,ENE,68,3.0,9.0,56,0.00,,---,0.01,VWS V14.01,2013-04-30 23:52:00,
2013-04-30 19:57:00,73.2,59.4,30.03,ENE,64,2.0,3.0,62,0.00,,---,0.01,VWS V14.01,2013-04-30 23:57:00,
2013-04-30 20:00:00,72.5,59.2,30.03,ENE,63,2.0,3.0,63,0.00,,---,0.01,VWS V14.01,2013-05-01 00:00:00,
2013-04-30 20:02:00,72.8,59.0,30.03,ENE,63,1.0,3.0,62,0.00,,---,0.01,VWS V14.01,2013-05-01 00:02:00,
2013-04-30 20:07:00,72.4,59.5,30.03,ENE,64,1.0,2.0,64,0.00,,---,0.01,VWS V14.01,2013-05-01 00:07:00,
2013-04-30 20:12:00,72.0,59.2,30.03,ENE,63,1.0,2.0,64,0.00,,---,0.01,VWS V14.01,2013-05-01 00:12:00,
2013-04-30 20:17:00,71.6,59.7,30.03,ENE,64,2.0,3.0,66,0.00,,---,0.01,VWS V14.01,2013-05-01 00:17:00,
2013-04-30 20:22:00,71.0,59.9,30.03,ENE,63,1.0,3.0,68,0.00,,---,0.01,VWS V14.01,2013-05-01 00:22:00,
2013-04-30 20:27:00,70.2,59.6,30.03,ENE,63,1.0,3.0,69,0.00,,---,0.01,VWS V14.01,2013-05-01 00:27:00,
2013-04-30 20:30:00,68.9,59.5,30.03,ENE,63,0.0,3.0,72,0.00,,---,0.01,VWS V14.01,2013-05-01 00:30:00,
2013-04-30 20:32:00,69.5,59.7,30.03,ENE,63,0.0,3.0,71,0.00,,---,0.01,VWS V14.01,2013-05-01 00:32:00,
2013-04-30 20:37:00,68.8,59.4,30.03,ENE,63,1.0,1.0,72,0.00,,---,0.01,VWS V14.01,2013-05-01 00:37:00,
2013-04-30 20:42:00,68.2,59.2,30.03,ENE,63,1.0,1.0,73,0.00,,---,0.01,VWS V14.01,2013-05-01 00:42:00,
2013-04-30 20:47:00,67.3,59.5,30.04,ENE,63,6.0,7.0,76,0.00,,---,0.01,VWS V14.01,2013-05-01 00:47:00,
2013-04-30 20:52:00,66.3,58.5,30.04,ENE,57,6.0,7.0,76,0.00,,---,0.01,VWS V14.01,2013-05-01 00:52:00,
2013-04-30 20:57:00,67.0,58.8,30.04,NE,46,3.0,10.0,75,0.00,,---,0.01,VWS V14.01,2013-05-01 00:57:00,
2013-04-30 21:00:00,68.4,59.8,30.05,NE,47,4.0,10.0,74,0.00,,---,0.01,VWS V14.01,2013-05-01 01:00:00,
2013-04-30 21:02:00,68.0,59.4,30.04,NE,46,2.0,10.0,74,0.00,,---,0.01,VWS V14.01,2013-05-01 01:02:00,
2013-04-30 21:07:00,68.6,60.0,30.05,NE,47,4.0,7.0,74,0.00,,---,0.01,VWS V14.01,2013-05-01 01:07:00,
2013-04-30 21:12:00,68.6,60.0,30.05,NE,47,2.0,7.0,74,0.00,,---,0.01,VWS V14.01,2013-05-01 01:12:00,
2013-04-30 21:17:00,68.4,60.2,30.05,NE,47,4.0,7.0,75,0.00,,---,0.01,VWS V14.01,2013-05-01 01:17:00,
2013-04-30 21:22:00,68.1,59.9,30.05,NE,47,4.0,7.0,75,0.00,,---,0.01,VWS V14.01,2013-05-01 01:22:00,
2013-04-30 21:27:00,67.9,60.1,30.05,NE,47,4.0,7.0,76,0.00,,---,0.01,VWS V14.01,2013-05-01 01:27:00,
2013-04-30 21:30:00,68.0,60.9,30.05,NE,43,3.0,7.0,78,0.00,,---,0.01,VWS V14.01,2013-05-01 01:30:00,
2013-04-30 21:32:00,67.9,60.8,30.05,NE,43,4.0,7.0,78,0.00,,---,0.01,VWS V14.01,2013-05-01 01:32:00,
2013-04-30 21:37:00,68.0,60.9,30.05,NE,42,4.0,5.0,78,0.00,,---,0.01,VWS V14.01,2013-05-01 01:37:00,
2013-04-30 21:42:00,67.6,60.5,30.06,NE,42,1.0,6.0,78,0.00,,---,0.01,VWS V14.01,2013-05-01 01:42:00,
2013-04-30 21:47:00,67.1,60.7,30.06,NE,43,4.0,6.0,80,0.00,,---,0.01,VWS V14.01,2013-05-01 01:47:00,
2013-04-30 21:52:00,67.0,61.0,30.06,NE,40,6.0,6.0,81,0.00,,---,0.01,VWS V14.01,2013-05-01 01:52:00,
2013-04-30 21:57:00,67.1,61.4,30.06,NE,41,6.0,9.0,82,0.00,,---,0.01,VWS V14.01,2013-05-01 01:57:00,
2013-04-30 22:00:00,67.1,61.4,30.07,NE,40,5.0,9.0,82,0.00,,---,0.01,VWS V14.01,2013-05-01 02:00:00,
2013-04-30 22:02:00,67.1,61.4,30.07,NE,40,5.0,9.0,82,0.00,,---,0.01,VWS V14.01,2013-05-01 02:02:00,
2013-04-30 22:07:00,67.1,61.4,30.07,NE,40,6.0,7.0,82,0.00,,---,0.01,VWS V14.01,2013-05-01 02:07:00,
2013-04-30 22:12:00,67.2,61.9,30.08,NE,40,4.0,9.0,83,0.00,,---,0.01,VWS V14.01,2013-05-01 02:12:00,
2013-04-30 22:17:00,67.0,61.7,30.08,NE,39,4.0,10.0,83,0.00,,---,0.01,VWS V14.01,2013-05-01 02:17:00,
2013-04-30 22:22:00,66.9,61.6,30.08,NE,39,3.0,10.0,83,0.00,,---,0.01,VWS V14.01,2013-05-01 02:22:00,
2013-04-30 22:27:00,66.8,61.8,30.08,NE,40,5.0,10.0,84,0.00,,---,0.01,VWS V14.01,2013-05-01 02:27:00,
2013-04-30 22:30:00,66.9,61.9,30.08,NE,40,5.0,10.0,84,0.00,,---,0.01,VWS V14.01,2013-05-01 02:30:00,
2013-04-30 22:32:00,66.8,61.8,30.08,NE,38,5.0,10.0,84,0.00,,---,0.01,VWS V14.01,2013-05-01 02:32:00,
2013-04-30 22:37:00,67.0,62.0,30.08,NE,40,5.0,6.0,84,0.00,,---,0.01,VWS V14.01,2013-05-01 02:37:00,
2013-04-30 22:42:00,67.1,62.1,30.08,NE,37,5.0,9.0,84,0.00,,---,0.01,VWS V14.01,2013-05-01 02:42:00,
2013-04-30 22:47:00,66.9,61.9,30.08,NE,38,6.0,9.0,84,0.00,,---,0.01,VWS V14.01,2013-05-01 02:47:00,
2013-04-30 22:52:00,66.8,61.8,30.09,NE,38,4.0,9.0,84,0.00,,---,0.01,VWS V14.01,2013-05-01 02:52:00,
2013-04-30 22:57:00,66.8,61.8,30.09,NE,36,5.0,9.0,84,0.00,,---,0.01,VWS V14.01,2013-05-01 02:57:00,
2013-04-30 23:00:00,66.8,61.8,30.09,NE,42,3.0,10.0,84,0.00,,---,0.01,VWS V14.01,2013-05-01 03:00:00,
2013-04-30 23:02:00,66.8,61.8,30.09,NE,36,2.0,9.0,84,0.00,,---,0.01,VWS V14.01,2013-05-01 03:02:00,
2013-04-30 23:07:00,66.8,61.8,30.09,NE,42,3.0,4.0,84,0.00,,---,0.01,VWS V14.01,2013-05-01 03:07:00,
2013-04-30 23:12:00,66.7,61.7,30.09,NE,41,3.0,6.0,84,0.00,,---,0.01,VWS V14.01,2013-05-01 03:12:00,
2013-04-30 23:17:00,66.7,61.7,30.09,NE,36,5.0,10.0,84,0.00,,---,0.01,VWS V14.01,2013-05-01 03:17:00,
2013-04-30 23:22:00,66.7,61.7,30.09,NE,39,4.0,10.0,84,0.00,,---,0.01,VWS V14.01,2013-05-01 03:22:00,
2013-04-30 23:27:00,66.7,61.7,30.10,NE,38,5.0,10.0,84,0.00,,---,0.01,VWS V14.01,2013-05-01 03:27:00,
2013-04-30 23:30:00,66.6,61.6,30.10,NE,37,4.0,10.0,84,0.00,,---,0.01,VWS V14.01,2013-05-01 03:30:00,
2013-04-30 23:32:00,66.6,61.6,30.10,NE,38,5.0,10.0,84,0.00,,---,0.01,VWS V14.01,2013-05-01 03:32:00,
2013-04-30 23:37:00,66.5,61.5,30.10,NE,37,5.0,5.0,84,0.00,,---,0.01,VWS V14.01,2013-05-01 03:37:00,
2013-04-30 23:42:00,66.6,61.6,30.10,NE,40,5.0,10.0,84,0.00,,---,0.01,VWS V14.01,2013-05-01 03:42:00,
2013-04-30 23:47:00,66.6,61.6,30.10,NE,39,3.0,10.0,84,0.00,,---,0.01,VWS V14.01,2013-05-01 03:47:00,
2013-04-30 23:52:00,66.6,61.6,30.10,NE,34,5.0,10.0,84,0.00,,---,0.01,VWS V14.01,2013-05-01 03:52:00,
2013-04-30 23:57:00,66.5,61.5,30.10,NNE,33,3.0,10.0,84,0.00,,---,0.01,VWS V14.01,2013-05-01 03:57:00,